User: anonymous   Login
Location: Caltech
(34.1382°N, 118.1253°W)
Time: 03:50:22
(UTC-07:00)
Language:

HO-68 - Orbit

View from above orbital plane
View from above orbital plane
View from above satellite
View from above satellite

Ground track
Ground track

The orbit data is extracted from the following two-line orbital elements,

1 36122U 09072B   17087.92653358 -.00000054 +00000-0 -30250-4 0  9991
2 36122 100.1094 117.7963 0008111 063.4733 296.7212 13.16338862349963
Epoch (UTC): 28 March 2017 22:14:12
Eccentricity: 0.0008111
inclination: 100.1094°
perigee height: 1192 km
apogee height: 1205 km
right ascension of ascending node: 117.7963°
argument of perigee: 63.4733°
revolutions per day: 13.16338862
mean anomaly at epoch: 296.7212°
orbit number at epoch: 34996

The dashed part of the orbit path shows where the satellite is in the earth's shadow,  

DLR